RH
6 6 6 8 10 10 10 9 8 11 11 10 13 10 8 12 16 14 16 25 28 28 30 30 30 30 33 36 37 41 41 40 41 46 49 47 46 49 49 49 50 48 48 50 49 50 51 48 43 40 42 43 45 47 45 44 43 43 42 42 44 45 45 45 42 40 38 41 45 48 48 47 44 41 38 36 38 41 40 37 36 37 35 32 29 24 22 22 24 23 18 11 9 10 11 11 10
7 8 7 8 10 10 10 9 10 13 12 10 12 11 9 12 14 15 15 23 31 33 33 32 34 36 36 37 40 42 44 48 46 46 48 45 45 48 47 49 50 49 49 49 48 49 50 48 43 40 42 46 47 49 46 44 43 44 45 43 43 44 45 45 43 40 38 39 43 47 48 48 47 46 44 39 38 39 41 41 39 39 36 33 31 26 24 23 22 19 16 11 9 10 11 11 10
7 10 7 9 10 10 10 10 12 12 10 9 11 13 13 13 13 14 18 24 32 35 34 33 35 38 37 39 42 44 48 53 52 51 50 45 45 48 48 50 52 51 50 50 49 49 48 46 42 40 43 46 46 47 47 45 44 45 46 44 42 42 45 46 45 41 40 40 40 42 44 47 49 50 50 46 48 48 44 43 41 39 37 35 32 28 26 25 23 17 13 10 8 13 14 11 10
7 10 10 10 10 9 12 13 15 13 11 11 13 16 16 17 17 19 23 26 30 31 33 34 36 38 40 45 46 46 50 53 55 53 50 45 44 48 50 52 54 53 52 51 50 49 46 43 42 43 43 45 46 47 48 46 43 44 45 43 41 41 43 44 45 43 42 42 41 40 40 44 48 49 50 50 55 61 55 48 48 45 39 37 35 31 28 26 23 17 12 10 8 17 22 17 12
8 11 11 11 11 10 12 14 16 13 11 13 16 19 19 21 23 25 27 28 29 31 34 35 37 39 42 45 42 46 49 50 50 48 48 47 43 46 51 54 55 53 52 51 50 48 45 42 43 44 43 43 45 46 49 46 43 45 44 43 42 41 41 43 45 45 43 42 42 42 42 43 47 49 49 50 54 58 59 56 56 53 46 40 37 32 30 29 24 17 13 11 10 20 27 23 17
10 11 11 12 11 11 13 14 15 14 12 11 17 22 19 20 23 27 28 29 30 31 34 34 36 38 41 41 38 43 45 44 44 42 45 46 44 44 49 53 54 53 51 51 49 47 44 42 42 44 43 42 43 44 47 46 44 47 46 44 43 42 42 44 44 44 43 43 43 43 44 44 47 52 47 49 53 53 57 62 62 59 54 48 43 37 32 31 26 18 15 14 13 19 26 24 21
11 11 11 11 11 12 16 17 16 16 14 11 17 22 19 19 21 27 29 31 32 31 33 34 34 36 39 38 38 40 37 38 39 38 41 43 45 45 48 52 53 53 51 50 47 45 43 42 41 42 43 42 41 41 44 44 43 44 46 47 49 47 44 44 45 44 43 43 46 47 47 45 48 54 50 47 48 51 56 60 65 64 59 54 50 44 37 32 27 20 15 16 17 19 25 26 25
12 11 11 12 13 13 16 16 15 16 14 10 16 19 18 18 20 26 29 31 34 33 34 34 33 35 37 36 40 41 35 36 37 38 40 41 43 43 47 50 51 52 51 48 45 43 42 43 43 41 41 40 39 38 40 43 42 41 42 47 50 50 48 47 47 46 46 45 48 51 51 49 49 55 56 49 42 49 59 58 63 64 59 56 53 49 43 36 28 22 17 17 20 21 26 29 29
11 11 11 13 14 14 15 15 13 13 13 10 13 14 13 16 18 24 27 28 32 33 35 35 32 36 39 38 42 42 37 37 37 38 37 36 37 37 43 48 48 49 47 45 43 42 42 45 45 42 41 39 39 40 41 42 42 40 40 44 46 48 50 50 49 48 47 46 48 51 54 52 51 54 57 55 46 48 59 60 63 65 60 56 53 48 45 40 30 24 19 18 22 24 27 30 31
11 11 12 14 15 15 16 15 14 12 12 10 9 10 10 14 16 20 25 26 30 34 35 34 33 37 39 40 41 38 36 36 36 36 34 31 31 34 41 44 43 43 41 41 41 41 43 45 45 44 42 39 40 41 42 41 41 40 38 41 43 45 49 49 48 47 45 44 46 49 53 54 52 56 58 60 55 48 53 56 58 64 62 57 52 45 42 40 32 25 20 17 20 24 27 30 32
12 11 12 15 17 16 16 15 16 14 12 11 9 9 10 12 15 18 23 27 31 36 35 32 33 36 36 37 39 35 32 32 32 33 31 30 29 34 38 37 38 38 37 38 39 40 41 42 43 43 41 39 38 38 38 40 42 40 39 41 42 43 46 46 44 45 43 41 44 47 52 55 55 57 59 62 58 50 51 52 52 59 58 53 49 42 39 39 33 26 22 18 16 18 25 29 31
12 13 14 17 18 17 18 17 15 14 13 12 9 9 10 12 16 18 23 27 31 36 33 30 32 34 34 37 39 36 33 31 29 29 30 31 30 32 33 32 35 36 36 37 37 37 38 38 39 39 38 37 36 35 35 37 40 41 40 40 40 40 41 41 41 43 43 41 43 46 50 55 58 60 60 62 58 49 50 52 51 56 53 46 42 37 35 37 33 28 23 20 16 13 19 27 30
13 14 15 17 19 18 18 16 14 14 14 13 11 10 11 13 16 19 22 26 31 34 30 28 30 32 35 38 38 37 35 33 30 29 31 32 31 30 29 30 33 35 34 34 34 34 34 34 34 36 36 36 34 35 36 37 38 38 37 37 37 36 37 39 40 40 40 41 44 46 50 54 59 61 61 62 58 50 49 52 51 52 50 43 37 32 29 31 31 28 25 22 20 13 15 25 30
13 14 14 16 18 18 17 15 14 15 16 15 12 10 13 15 16 19 22 25 28 28 28 30 30 31 36 38 39 39 37 35 32 31 33 33 32 31 29 30 33 34 34 33 33 32 32 32 32 34 34 32 32 34 38 40 39 36 35 33 32 33 36 38 38 38 40 43 45 47 50 53 57 60 61 61 57 53 50 53 54 52 50 45 38 30 25 26 27 26 25 24 22 15 16 26 31
13 13 16 17 18 17 16 16 15 16 17 16 13 11 13 15 17 19 21 23 24 27 30 32 29 29 35 38 39 39 37 36 35 34 34 31 30 31 30 32 34 34 34 34 33 33 33 33 33 32 29 27 29 32 36 40 40 37 33 29 29 32 34 35 37 39 42 44 46 48 49 49 54 60 64 63 59 55 51 51 55 55 51 46 39 31 24 24 25 23 23 24 24 19 16 24 31
13 14 17 17 17 17 16 17 18 18 18 16 15 12 14 15 16 18 20 21 25 30 31 31 28 26 32 35 35 37 38 37 37 35 33 31 29 31 32 33 34 35 34 34 34 35 34 33 32 28 24 23 24 27 32 36 38 36 33 29 27 29 31 33 37 41 43 44 46 47 47 48 53 61 66 66 61 57 53 51 53 56 54 50 45 34 25 23 25 24 20 21 24 22 16 20 29
13 14 18 17 17 17 17 19 18 18 17 16 15 14 16 17 16 19 22 24 29 32 29 29 26 23 29 32 33 37 37 36 36 34 32 30 29 29 31 32 33 33 33 32 33 33 32 30 27 24 20 20 21 22 26 30 34 34 33 30 29 32 35 35 35 40 42 44 47 46 48 49 52 59 64 62 58 53 51 51 52 56 59 59 51 40 29 23 25 24 19 18 21 24 20 17 26
14 17 19 18 17 16 19 20 18 18 17 16 16 16 18 19 19 23 25 27 28 28 26 26 27 28 31 32 35 36 34 33 32 31 28 27 27 26 28 29 29 29 29 28 29 28 27 25 23 21 20 21 21 21 23 26 29 31 31 31 31 34 38 36 32 37 41 44 48 47 48 49 51 56 58 57 51 47 47 51 53 53 59 60 54 46 34 25 23 22 19 18 17 21 23 19 23
16 19 19 18 17 17 19 19 17 18 17 17 17 17 20 20 22 24 26 28 26 26 27 26 29 33 34 35 36 35 32 31 30 29 27 25 23 23 24 27 27 27 27 27 27 27 26 23 22 21 20 21 21 21 23 23 25 27 29 31 32 32 34 34 32 36 40 44 45 43 45 49 51 54 56 56 51 46 47 54 57 53 56 59 56 51 38 27 22 19 18 18 17 17 23 21 21
15 16 18 17 18 20 19 17 17 18 18 18 18 19 22 23 23 24 26 28 26 27 28 28 33 36 36 37 35 33 33 32 30 29 27 26 23 21 22 25 27 26 27 27 28 27 27 24 22 20 20 21 21 22 24 23 23 25 28 30 32 32 33 33 33 37 41 46 45 41 44 49 51 53 56 60 59 56 51 56 65 60 58 60 59 54 44 34 23 18 17 18 18 16 21 23 20
15 15 16 16 18 21 18 16 17 18 17 17 18 20 22 23 24 25 26 28 28 28 28 27 32 35 35 36 34 32 32 31 30 27 26 27 25 22 20 21 23 24 25 26 27 27 26 24 22 20 19 21 22 23 23 24 23 23 26 30 30 29 31 34 33 36 41 46 48 44 46 48 46 48 54 62 67 67 59 61 70 65 61 63 63 58 51 44 30 19 17 17 18 16 20 24 21
15 14 14 16 19 21 18 17 17 17 18 17 18 20 21 21 23 25 25 27 26 25 25 24 26 29 31 32 31 31 29 28 27 25 25 26 24 23 20 19 21 22 23 24 24 24 23 23 22 21 20 19 20 22 23 24 25 24 25 28 28 25 30 36 34 35 38 42 49 47 50 50 42 42 51 58 63 70 70 68 73 68 61 63 65 63 57 51 38 26 18 17 18 17 20 24 22
14 14 13 15 19 19 17 17 17 16 17 18 19 20 19 20 23 24 22 23 22 21 22 23 22 23 26 28 28 28 28 24 24 24 24 25 26 24 19 19 21 21 21 21 22 22 20 21 21 21 21 19 19 19 21 23 25 25 24 27 29 25 27 32 32 36 38 40 49 50 51 49 40 43 51 56 59 67 74 73 74 72 63 61 63 64 63 54 43 32 23 19 18 18 21 23 22
14 14 13 15 18 18 17 17 17 17 18 19 20 20 19 19 20 20 19 19 20 21 23 22 22 24 27 27 28 27 26 21 22 24 25 27 28 25 20 20 22 21 21 21 21 21 20 20 20 21 21 21 19 18 18 20 23 24 26 30 32 28 24 26 27 36 41 39 44 48 47 45 42 47 54 59 62 66 72 74 75 71 64 62 61 61 63 61 52 40 28 23 22 20 21 22 21
15 15 14 15 17 17 16 16 17 17 19 20 20 21 19 18 18 18 18 18 20 23 24 24 25 27 28 28 28 26 22 19 21 23 24 27 28 26 22 22 23 22 21 20 19 20 20 21 20 21 21 21 21 20 18 19 21 24 27 28 32 33 27 24 24 31 42 42 42 44 43 43 46 51 56 61 65 67 70 74 78 75 67 65 64 61 61 64 65 55 38 27 25 25 21 19 18
17 16 15 15 16 16 16 16 17 17 19 21 21 21 19 17 17 17 18 18 21 23 24 25 25 26 28 28 27 24 21 19 21 22 23 25 25 25 24 23 24 22 21 19 17 18 19 20 21 21 21 21 21 21 21 21 21 22 25 26 33 37 30 27 26 26 38 44 43 44 44 46 48 54 59 61 63 67 69 72 79 81 76 70 67 66 62 63 68 66 54 38 30 29 25 21 18
17 16 16 15 15 16 16 17 17 17 19 21 22 22 19 17 17 17 18 19 21 24 25 24 24 24 25 26 25 22 20 20 21 22 23 23 24 24 24 23 22 21 20 17 16 16 16 18 19 20 21 21 21 22 23 23 22 22 24 26 29 31 28 30 30 29 38 41 41 43 45 47 49 54 59 60 61 69 73 70 74 78 78 76 70 67 65 64 67 67 65 54 40 33 29 26 23
16 15 16 16 16 16 16 17 17 18 19 20 19 19 18 16 17 18 19 21 23 24 23 21 22 22 21 22 23 22 21 20 21 22 23 24 24 23 22 21 20 20 19 17 17 16 16 17 18 19 19 20 22 23 25 26 25 24 25 28 28 29 29 30 30 33 43 44 40 43 45 46 48 52 55 56 57 66 74 72 73 75 74 75 73 69 67 69 71 71 69 65 53 40 33 28 25
16 16 16 17 18 16 16 17 16 17 18 17 17 19 21 19 17 19 21 23 24 23 21 21 21 21 21 22 23 22 21 20 21 22 23 24 23 22 21 20 19 18 19 19 18 16 16 16 17 18 17 18 22 24 26 26 26 26 26 27 28 29 30 30 31 34 44 47 45 45 46 45 47 50 53 54 53 57 65 69 71 73 72 74 76 75 70 69 74 77 75 71 62 50 39 30 27
16 16 16 18 19 18 16 16 16 16 17 18 19 23 27 23 17 18 22 23 24 24 21 21 21 20 21 22 22 21 20 19 20 21 22 22 22 22 22 22 20 19 20 20 19 18 16 15 15 16 16 17 22 25 27 26 26 26 26 26 26 26 27 30 33 36 41 45 47 49 48 46 46 48 51 52 51 51 55 60 63 67 70 73 78 81 77 73 73 77 80 77 70 62 49 37 32
16 17 19 20 18 19 18 17 17 17 19 20 20 23 25 23 16 15 20 21 21 22 21 21 21 20 20 21 22 22 21 19 19 20 22 23 23 23 24 23 22 21 21 20 20 19 18 16 15 15 16 17 21 25 27 26 25 23 24 23 23 24 24 26 30 36 41 43 45 49 48 48 47 46 49 50 50 49 51 55 59 63 67 71 78 84 84 82 80 80 83 84 80 73 63 52 42
19 17 23 25 20 21 21 18 19 18 18 19 18 20 20 20 17 13 17 20 20 20 20 20 20 20 21 21 22 23 22 20 19 21 23 24 24 24 24 24 24 24 23 22 22 22 20 18 17 16 16 17 19 24 25 22 21 21 20 20 21 22 22 22 23 28 34 37 39 41 43 47 48 47 48 49 49 51 50 51 56 61 68 73 79 83 84 85 86 86 88 91 90 83 75 68 57
25 20 22 24 20 20 22 19 19 18 18 16 16 19 19 19 17 15 17 19 20 20 19 19 19 19 20 21 22 23 22 22 22 23 24 24 24 24 25 25 25 26 26 25 24 23 20 18 18 17 15 16 17 19 20 17 18 19 18 19 21 22 22 22 22 22 25 27 29 30 32 38 42 46 51 50 50 52 52 51 53 60 69 76 81 82 81 82 86 89 89 88 92 90 86 83 72
28 27 25 24 21 20 22 21 19 18 17 16 16 18 19 20 19 17 17 19 20 21 21 20 19 19 19 21 22 22 22 22 23 24 24 24 25 25 25 26 27 27 27 26 25 24 21 20 21 19 17 16 14 14 14 14 15 16 17 20 21 21 21 20 21 21 22 23 24 24 26 29 32 38 47 51 52 52 54 54 53 58 67 75 80 83 82 82 85 91 90 84 86 92 94 93 85
25 29 30 28 26 23 23 23 21 19 18 18 18 19 20 21 21 19 18 19 20 21 22 22 21 20 19 21 22 23 22 22 23 25 25 25 25 26 26 28 29 29 29 27 27 25 23 23 22 21 20 19 15 12 12 14 13 13 17 19 18 16 15 16 18 19 20 20 21 22 23 26 28 30 36 45 51 53 55 58 59 58 62 69 73 78 83 84 85 90 88 81 84 91 94 94 91
24 27 28 27 26 26 26 25 24 22 20 21 22 21 21 21 22 21 19 20 20 21 21 21 22 21 20 21 22 23 23 23 24 25 26 26 27 28 28 30 31 32 31 28 28 27 25 24 22 22 21 20 19 14 12 13 13 13 16 16 14 13 12 12 13 13 13 14 15 17 20 23 25 26 29 36 44 51 54 59 63 63 63 67 70 74 79 82 84 85 82 79 83 89 89 89 90
27 27 26 25 25 26 27 26 27 27 22 23 26 25 23 23 25 24 20 21 23 23 24 23 23 24 23 24 24 24 25 25 27 26 27 28 28 29 30 32 33 34 32 30 29 29 25 24 23 23 21 20 21 16 13 13 14 16 16 15 14 12 11 10 10 9 9 10 11 12 15 18 21 23 25 28 32 40 46 51 60 67 68 69 72 76 78 79 81 81 78 79 81 85 87 88 90
30 27 26 26 29 28 29 30 33 32 26 26 30 27 27 29 30 29 24 23 25 26 28 27 25 26 26 26 26 27 28 28 28 28 28 29 29 29 30 32 34 34 34 32 31 29 26 25 24 24 23 21 22 18 14 14 16 16 16 16 15 12 12 12 11 11 11 10 10 10 11 13 16 20 23 23 23 27 33 39 48 61 65 65 71 80 80 79 83 83 79 81 82 84 87 87 88
34 31 29 30 34 32 34 38 40 38 32 30 31 27 29 32 31 31 28 26 26 25 26 27 26 27 28 28 29 31 32 31 31 30 30 31 31 30 31 33 33 34 34 32 32 30 26 26 26 25 24 23 24 21 15 16 16 15 15 16 16 14 13 13 13 12 12 11 10 10 10 11 12 14 17 17 17 19 23 27 32 43 51 53 60 71 76 75 84 89 82 80 80 80 84 85 86
36 34 31 33 36 34 36 41 42 41 36 33 33 30 33 36 32 30 30 28 28 27 26 27 27 27 29 30 32 34 35 33 33 32 31 31 31 31 31 33 33 32 32 31 32 31 28 27 26 26 25 24 26 24 18 16 16 15 16 17 16 15 15 14 14 13 13 12 11 11 11 12 12 12 13 13 14 15 16 18 19 25 33 39 44 54 64 67 78 89 86 81 77 74 76 78 81
38 38 35 37 38 37 37 40 42 45 43 39 35 34 39 41 35 32 32 32 33 31 30 29 28 28 28 30 32 33 35 34 33 31 29 30 30 30 32 32 31 30 30 31 31 32 29 27 27 26 26 26 27 27 20 17 17 16 16 16 16 16 16 15 15 15 14 14 13 13 12 13 13 13 13 14 14 14 14 13 13 14 17 23 29 37 47 51 59 73 79 79 73 66 64 66 70
41 42 40 40 39 38 39 41 43 45 46 44 38 39 46 46 39 37 37 38 39 38 37 33 29 29 30 29 29 31 33 33 31 28 28 29 29 31 32 31 28 27 30 32 33 34 32 30 29 27 27 28 28 28 23 17 16 16 15 16 16 16 16 16 17 17 16 16 15 15 14 14 13 14 15 15 16 15 16 15 13 13 12 13 16 21 26 30 35 42 50 56 56 52 51 52 54
41 43 44 42 40 40 41 41 41 43 45 47 46 44 46 45 41 40 39 38 39 40 42 40 32 29 29 28 26 27 29 31 30 29 29 31 31 32 32 29 25 26 31 34 34 35 34 32 31 29 28 29 29 29 25 18 17 16 14 14 15 16 16 16 18 18 18 17 17 16 16 16 15 14 14 15 15 15 15 15 15 15 15 14 14 15 17 18 20 22 25 30 34 36 36 36 37
43 46 47 44 41 42 43 41 41 44 43 46 51 46 41 43 42 41 40 38 39 38 39 41 37 30 27 27 26 25 24 26 30 32 32 32 32 31 29 25 24 27 31 33 34 34 34 33 33 32 30 30 30 29 26 20 17 16 15 15 16 16 17 17 18 20 20 19 19 18 18 17 17 16 15 14 14 13 12 12 12 13 13 13 13 13 14 14 15 17 17 19 21 22 23 23 24
44 46 43 40 39 41 44 42 44 48 42 43 51 44 39 44 41 38 38 34 34 33 31 33 33 28 23 24 26 24 23 26 29 32 32 31 29 27 24 22 24 26 28 29 32 33 35 36 35 34 33 32 30 29 26 21 17 17 16 15 16 17 18 19 19 20 21 20 19 20 19 19 18 17 17 16 15 14 13 12 12 12 12 12 12 12 12 13 13 15 16 17 18 18 18 18 18
41 42 39 37 40 41 41 41 43 47 44 42 47 42 39 42 38 34 30 25 27 29 27 28 28 25 23 22 23 23 24 27 29 31 32 29 27 25 24 24 26 27 27 27 30 32 36 37 36 35 34 32 31 29 25 20 18 19 18 16 16 18 18 19 19 20 21 21 20 19 20 19 19 19 18 17 17 16 16 16 15 14 14 14 13 13 12 12 11 12 12 13 15 17 18 19 19
36 37 36 34 38 40 41 45 42 39 41 40 40 41 41 40 36 33 28 27 30 28 28 28 27 25 23 23 23 23 25 29 31 32 33 30 28 28 28 28 29 30 30 29 30 32 35 36 35 34 34 34 33 31 24 19 18 20 19 17 16 17 19 19 19 20 21 22 21 19 19 18 18 18 18 18 18 18 17 17 17 17 16 16 15 15 14 13 12 11 11 11 12 13 15 17 19
34 35 35 33 36 37 37 41 37 35 39 37 35 37 38 34 32 32 33 33 32 28 27 28 27 25 25 25 27 27 28 30 32 35 36 35 32 32 32 32 33 35 34 32 32 32 33 34 35 34 36 37 37 33 25 19 19 22 21 18 16 17 19 19 20 21 22 22 20 18 17 17 17 17 18 18 19 18 18 18 18 18 17 17 16 15 15 14 13 12 11 12 11 11 12 12 13
34 36 38 38 40 40 40 42 39 39 38 32 32 34 33 31 32 35 36 34 32 30 29 30 30 28 28 29 30 30 31 33 35 38 38 39 38 37 37 36 36 37 36 33 33 31 29 31 33 34 35 36 36 33 26 22 22 22 22 20 18 18 19 20 21 22 22 21 20 19 18 17 17 17 17 17 18 18 18 18 18 18 18 17 16 16 15 14 14 14 13 12 11 11 12 12 11
39 39 41 42 43 43 49 51 43 38 36 32 35 34 32 33 37 43 43 37 36 34 32 32 33 33 35 34 31 31 33 35 39 41 41 41 40 38 39 38 36 37 37 34 33 31 29 28 30 31 32 32 31 28 26 25 25 24 24 23 21 19 19 20 21 22 22 21 21 20 20 20 18 18 17 17 17 17 18 18 18 18 17 17 17 17 17 16 15 15 14 13 12 11 11 11 12
42 41 40 41 45 45 47 48 40 36 37 38 38 36 36 37 41 47 47 42 40 38 36 35 34 35 36 36 35 33 34 35 38 41 42 42 41 39 38 37 37 38 39 36 33 32 31 29 30 31 31 31 29 28 27 27 27 27 25 24 24 22 22 22 22 21 21 22 23 23 22 21 20 19 18 18 18 17 17 17 17 17 17 17 17 17 17 17 16 15 15 14 14 13 11 11 10
44 43 40 40 43 44 43 44 44 42 43 45 43 42 44 43 43 47 46 45 45 41 40 40 39 37 35 35 36 36 37 37 37 39 40 41 43 43 39 38 38 40 41 39 36 35 34 33 33 33 35 35 33 32 31 29 29 30 28 26 25 23 24 25 24 22 21 22 24 24 23 22 21 21 20 19 18 18 18 18 18 17 17 16 17 17 17 17 16 16 15 15 15 14 13 12 11
47 43 42 42 41 43 43 44 49 49 47 49 46 44 46 44 44 46 43 44 46 45 44 44 46 45 41 39 37 35 37 38 37 39 39 40 42 43 43 43 43 43 43 42 40 38 37 36 35 35 38 40 39 38 36 32 32 33 33 30 29 27 24 24 26 26 24 24 25 25 25 24 23 22 21 20 19 19 19 19 19 18 17 17 17 17 17 17 16 17 16 16 16 15 14 14 13
44 44 46 45 42 45 46 46 53 55 53 54 50 44 45 44 45 46 41 39 43 47 47 46 47 47 45 45 43 41 40 38 36 37 37 40 42 42 45 47 47 46 46 46 45 43 42 40 39 38 40 42 43 43 41 38 36 36 35 34 33 32 28 26 27 28 27 25 25 26 26 26 25 23 22 21 20 20 20 20 20 19 18 18 18 18 17 17 16 16 16 16 16 16 15 15 15
43 46 47 47 47 51 52 50 53 53 54 59 54 47 46 44 45 44 39 38 41 45 48 47 47 46 44 43 43 44 43 39 37 35 35 38 40 42 45 45 47 47 48 50 51 49 47 45 44 42 42 43 44 45 44 42 41 40 39 38 37 35 34 32 31 30 29 27 26 27 28 28 27 25 24 23 21 20 20 20 20 20 19 19 19 18 17 17 17 16 16 16 15 15 15 15 15
46 47 49 51 52 51 51 51 50 47 53 61 54 46 45 44 45 42 39 39 40 43 47 49 49 47 46 43 42 42 42 40 39 36 35 36 38 41 43 44 47 47 47 50 53 54 53 51 49 46 46 47 47 48 48 46 44 42 43 43 43 41 39 38 37 33 31 30 30 30 30 30 28 26 26 25 23 21 20 21 21 20 19 19 18 18 18 17 17 17 16 15 15 15 15 14 14
50 50 53 54 54 52 51 50 49 47 53 61 57 49 47 48 47 43 40 40 40 40 45 48 46 44 45 46 46 46 45 44 42 38 36 38 41 41 40 41 46 47 46 47 49 53 56 55 53 51 51 51 49 49 52 50 46 44 45 46 46 45 44 43 42 39 35 33 33 34 34 33 30 27 27 28 26 23 21 21 21 20 19 19 18 17 17 17 17 16 16 16 16 15 15 14 14
56 54 55 54 55 56 56 56 58 54 51 55 57 54 54 54 51 46 44 43 41 39 40 41 40 40 42 46 48 49 48 47 44 39 39 41 42 41 39 38 40 45 48 47 46 49 52 52 52 53 53 51 49 50 53 55 53 49 45 45 47 47 46 46 45 44 41 36 35 36 37 36 34 31 29 29 27 24 22 22 21 21 20 19 20 19 18 18 18 17 17 16 17 16 16 16 15